Probability
51 51 50 46 43 43 41 36 34 34 32 28 23 17 13 11 10 10 10 9 9 8 8 10 10 9 8 6 5 6 6 6 8 9 10 13 15 13 10 9 7 4 1
52 52 50 48 45 42 38 35 35 34 31 26 21 17 14 11 9 10 10 10 9 9 10 11 10 9 8 6 5 5 4 5 6 8 9 11 12 11 9 8 5 3 1
52 53 51 48 47 42 38 36 36 35 30 23 17 14 12 10 8 8 8 9 9 9 10 11 10 8 8 7 5 4 3 3 4 4 5 7 9 9 8 6 4 3 3
50 52 51 48 45 43 41 39 38 34 29 22 16 11 10 9 7 7 6 7 8 9 10 11 9 7 6 6 4 3 2 2 2 2 2 4 6 7 7 5 3 3 3
46 47 47 45 44 44 43 41 37 32 26 21 15 11 10 8 6 5 4 5 6 7 8 9 7 4 3 3 3 3 3 2 2 2 3 3 4 4 6 5 3 2 2
41 41 41 42 43 44 42 39 34 30 25 20 15 12 10 7 3 2 2 3 4 4 5 6 5 3 2 2 2 2 2 2 2 3 4 4 3 4 5 5 5 3 1
38 37 38 40 41 40 38 34 32 29 26 21 17 15 11 5 1 0 1 3 3 3 4 4 3 1 2 3 3 2 2 1 1 3 5 5 5 6 7 7 6 5 3
36 36 37 38 36 35 34 32 31 30 27 23 20 19 15 7 2 0 2 5 6 6 6 5 3 1 2 3 3 3 3 3 1 2 4 4 5 6 7 7 6 6 5
34 34 35 33 31 31 33 33 33 32 29 24 21 20 17 10 3 0 2 8 10 9 8 7 3 1 1 1 3 5 6 6 3 2 2 2 2 3 5 6 6 6 6
29 30 31 30 29 31 34 36 35 34 31 25 21 19 17 12 4 0 3 8 11 10 8 5 2 1 1 1 2 6 8 8 6 4 3 3 3 3 3 3 5 6 6
28 30 32 32 31 33 37 38 35 33 30 25 21 19 18 14 6 1 1 5 8 8 7 4 1 0 0 0 1 4 6 7 8 8 6 6 7 7 5 3 4 7 8
32 33 35 35 33 33 36 35 33 32 29 25 22 20 19 15 7 1 0 1 3 4 5 3 1 0 0 0 1 2 3 4 7 8 7 7 9 10 9 7 7 9 11
35 36 37 36 33 32 33 31 30 30 28 24 21 19 19 16 9 3 0 0 0 1 2 1 1 0 0 0 0 1 1 2 3 4 5 5 7 9 10 10 10 12 13
32 33 34 34 32 31 29 27 26 26 24 21 18 17 18 17 12 6 2 0 0 0 0 0 1 1 1 1 0 0 0 0 1 2 3 4 5 5 7 10 10 11 11
26 26 27 27 26 26 24 20 18 17 16 13 11 12 13 12 9 6 4 2 1 0 0 2 3 3 3 3 1 1 1 1 2 3 3 4 4 4 5 7 7 7 6
20 20 20 20 21 20 18 14 11 9 7 5 5 5 6 5 3 3 3 2 1 0 1 3 5 5 5 4 3 2 2 3 4 5 4 3 3 3 3 3 3 2 2
17 15 14 15 16 15 14 11 9 6 3 2 1 1 1 1 0 0 1 1 1 0 1 3 4 5 6 4 3 3 3 3 4 3 2 1 2 1 1 1 1 0 0
11 11 11 11 12 11 10 9 8 7 5 3 2 1 0 0 0 0 0 1 1 1 2 3 3 4 5 4 3 3 2 2 1 0 0 0 0 0 0 0 0 0 0
7 8 9 9 9 8 8 7 7 7 6 5 5 4 1 0 0 0 1 2 2 3 3 3 3 4 4 4 4 3 2 1 0 0 0 0 0 0 0 0 0 0 0
8 7 7 8 7 6 7 7 6 5 5 6 6 4 2 1 1 1 1 3 4 4 4 3 3 3 4 4 3 2 1 1 0 0 0 0 0 0 0 0 0 0 0
7 6 5 5 5 5 6 7 6 4 4 5 4 2 1 2 4 3 2 3 5 6 5 4 3 2 2 2 1 0 0 0 0 0 0 0 0 0 0 0 0 0 0
4 3 3 4 5 6 6 6 6 4 5 4 3 1 2 3 5 5 4 4 6 6 6 5 3 1 0 0 0 0 0 0 0 0 0 0 0 0 0 0 0 0 0
2 2 3 5 6 6 6 6 5 4 3 3 3 2 3 5 6 6 6 6 6 6 5 4 3 1 0 0 0 0 0 0 0 0 0 0 0 0 0 0 0 0 0
1 1 2 4 5 4 4 4 4 3 3 2 3 3 4 5 6 6 6 6 5 4 4 3 3 2 1 0 0 0 0 0 0 0 0 0 0 0 0 0 0 0 0
1 2 2 3 3 2 2 2 2 3 4 3 2 2 3 4 4 4 4 4 4 3 3 3 3 2 1 0 0 0 0 0 0 0 0 0 0 0 0 0 0 0 0
1 2 3 3 3 2 2 2 1 2 4 4 2 2 2 4 4 4 3 3 3 3 3 3 3 1 0 0 0 0 0 0 0 0 0 0 0 0 0 0 0 0 0
Wind_Speed
5 4 3 4 3 3 2 1 1 1 1 1 1 1 1 1 1 1 1 1 1 1 1 1 1 1 1 2 1 1 1 1 0 1 0 0 1 2 3 2 3 4 4
4 4 3 3 3 3 2 2 2 1 1 1 1 2 2 2 1 1 2 1 1 0 1 1 1 1 1 2 2 2 1 1 0 1 1 0 1 2 2 3 3 3 3
4 4 4 3 3 3 2 2 2 2 2 1 1 1 1 1 1 1 1 1 0 0 0 1 1 1 1 1 2 1 1 1 1 1 1 1 1 1 1 2 1 1 2
3 3 3 3 3 3 3 2 2 2 2 2 2 1 1 1 1 0 0 0 0 0 0 0 1 1 0 1 1 1 2 2 1 1 1 1 1 1 1 1 1 0 0
1 2 3 3 3 3 3 3 2 2 2 2 1 1 1 1 1 0 1 1 1 0 1 0 1 1 1 1 1 1 1 1 1 1 1 0 1 1 1 1 1 1 1
1 2 2 3 3 3 3 3 3 2 2 2 2 2 1 1 1 2 1 1 1 1 1 1 1 1 2 2 1 1 1 2 1 1 1 1 1 2 1 2 1 1 1
1 2 2 3 4 3 3 3 3 2 2 2 2 2 2 1 1 1 1 1 1 1 1 1 2 1 1 1 2 3 2 3 3 2 2 3 2 2 2 2 2 2 2
1 1 1 2 3 3 3 3 2 2 2 2 2 2 2 2 2 2 0 1 1 1 2 2 1 1 2 1 2 2 2 2 3 3 2 3 2 2 2 3 3 2 3
1 1 2 2 2 3 3 3 3 3 2 2 2 2 2 2 2 2 1 2 1 2 2 1 1 1 1 2 2 2 2 2 2 2 2 3 4 4 3 2 2 2 3
1 1 2 2 2 3 3 3 3 2 3 3 2 2 2 3 3 3 2 2 2 1 1 1 1 0 0 0 2 3 3 2 2 2 3 4 5 5 5 4 3 3 2
1 1 1 2 2 3 3 2 2 3 3 2 2 2 2 3 4 4 4 2 2 2 1 1 1 1 1 2 2 3 3 3 3 3 4 4 3 3 3 4 4 4 3
2 2 1 1 2 2 2 2 2 2 2 2 2 2 2 3 3 3 4 4 3 2 2 1 1 2 3 5 4 4 4 4 3 3 3 3 2 2 2 3 4 4 4
1 1 0 0 0 0 1 2 2 1 1 2 2 2 2 1 2 2 4 5 4 2 2 2 2 4 5 5 6 5 4 3 3 3 3 2 2 2 2 2 2 3 3
1 1 1 1 1 1 1 1 1 1 1 1 1 1 1 1 1 1 2 2 3 3 2 2 4 6 5 4 3 4 4 3 2 3 2 2 2 1 1 1 2 2 1
1 1 2 2 2 1 1 1 1 2 1 0 0 0 0 1 1 1 1 1 1 1 1 2 2 2 3 3 3 3 3 2 3 3 2 2 1 1 1 1 1 1 1
1 1 1 1 2 2 2 2 5 3 4 4 3 2 1 1 1 2 2 3 2 2 1 2 2 2 2 3 3 2 2 2 2 2 2 1 1 2 2 1 1 1 1
1 1 1 1 0 1 2 2 2 2 4 3 2 3 2 2 1 1 3 2 3 4 2 3 2 2 2 2 2 2 2 1 1 1 2 2 2 2 2 1 1 1 1
1 0 0 1 1 1 1 1 2 2 2 1 1 2 2 2 2 1 1 2 1 2 2 2 1 1 2 1 1 1 1 0 0 1 1 1 2 2 1 1 1 1 1
2 1 1 1 1 1 1 2 2 2 2 2 2 2 1 1 1 0 1 1 2 1 1 1 1 2 2 1 1 1 1 1 1 1 0 1 1 2 1 1 1 1 1
1 2 3 2 1 1 1 1 1 1 1 2 2 2 2 1 1 1 2 2 2 1 1 1 1 1 1 1 2 2 1 1 1 1 1 1 1 1 1 1 1 1 1
2 2 4 3 1 1 1 1 1 1 1 1 1 2 3 2 2 2 2 1 1 1 1 1 1 1 1 1 1 1 2 1 1 1 2 1 1 2 1 1 1 1 1
2 3 2 2 1 1 1 1 1 1 1 1 1 1 4 2 1 1 1 0 0 1 1 1 1 2 2 2 2 2 2 2 2 2 2 2 2 2 2 1 1 1 2
3 2 2 1 1 1 2 1 1 1 1 1 1 1 1 0 1 1 1 1 1 1 1 1 2 2 2 2 2 2 3 3 3 3 3 3 3 2 2 2 2 2 1
3 2 1 1 1 2 2 1 1 0 0 1 1 1 1 1 1 1 1 1 1 1 1 1 2 3 4 3 2 2 3 3 4 3 3 3 3 3 2 2 2 2 2
2 1 0 0 1 2 1 1 1 1 1 1 1 1 0 1 1 1 1 1 1 1 2 2 1 2 3 4 3 3 3 4 3 3 3 3 3 3 3 2 2 2 2
2 1 0 1 1 1 1 1 1 1 1 1 1 1 0 0 1 1 1 1 1 1 1 1 1 2 2 2 3 3 2 3 3 3 3 2 3 3 3 2 2 3 3
Wind_Direction
173 175 173 175 182 184 186 179 160 129 145 178 189 199 198 201 212 209 234 242 210 252 264 239 270 316 326 315 318 311 307 308 189 256 246 110 150 144 144 163 167 169 178
164 161 164 165 167 177 182 165 150 151 167 181 202 209 207 197 198 219 233 248 206 247 309 319 289 276 298 318 327 324 313 305 238 229 226 202 180 160 173 190 185 177 170
165 164 164 171 171 180 181 168 165 173 180 185 215 223 212 197 207 236 238 242 191 148 257 273 288 315 332 331 315 320 321 323 315 249 237 211 237 203 193 220 193 158 186
159 162 160 175 178 179 177 168 172 170 173 188 211 214 210 207 229 242 218 103 298 144 239 269 350 3 355 306 306 328 319 319 308 293 239 225 251 239 197 222 237 186 216
140 169 171 174 170 171 166 160 163 170 188 185 202 233 235 216 206 115 222 202 206 262 294 19 35 63 49 351 304 315 309 288 283 280 264 294 294 275 241 254 237 189 220
206 211 181 183 175 173 164 161 164 175 191 190 199 208 219 241 90 72 26 281 259 249 257 251 188 190 158 173 204 230 262 259 274 285 286 275 273 286 261 256 250 238 241
220 207 201 180 166 167 176 168 169 175 189 205 188 186 178 129 112 93 40 268 257 259 271 283 277 251 213 208 217 229 235 236 231 244 264 272 263 270 279 264 244 244 245
219 212 199 177 166 168 179 179 176 182 196 203 201 199 175 159 146 121 138 256 243 247 248 249 262 299 307 318 276 252 238 246 236 224 243 271 264 258 255 264 254 245 242
259 217 214 203 189 186 190 193 192 196 202 203 198 198 179 158 168 166 196 234 243 250 248 260 239 239 337 333 289 272 260 254 253 227 219 243 255 264 264 271 270 248 253
292 264 245 222 211 198 196 203 201 198 202 205 195 194 191 160 166 169 189 239 243 247 222 197 138 183 161 268 282 286 276 280 286 275 257 252 245 244 235 221 238 249 261
287 279 276 246 223 207 199 206 198 199 199 201 193 202 192 164 171 183 194 232 254 251 233 212 199 182 201 241 254 260 257 274 277 264 256 244 236 232 219 213 220 231 245
274 262 261 258 249 223 181 192 201 205 193 197 191 200 184 168 173 185 192 219 263 282 278 236 180 204 239 251 251 248 263 280 268 265 259 254 244 237 225 221 228 230 231
287 281 278 277 279 238 180 186 194 199 205 212 203 206 204 177 170 187 199 220 240 261 296 301 249 236 246 247 240 237 245 250 256 266 273 270 263 243 225 219 231 228 232
268 255 216 186 182 179 179 179 177 207 213 235 242 238 216 158 160 182 205 228 237 241 264 270 243 236 243 249 240 233 228 231 240 259 270 272 273 273 258 230 220 220 224
260 245 237 193 168 140 91 40 98 41 38 270 333 341 236 237 248 210 197 227 253 279 291 258 248 225 227 231 230 223 223 225 229 240 259 278 279 277 271 257 239 226 227
242 247 245 201 157 142 124 81 53 76 85 81 87 88 69 115 167 194 204 209 208 180 202 255 250 241 244 247 249 243 225 224 236 244 254 262 275 280 276 276 256 237 237
271 260 275 284 211 159 147 141 124 84 71 67 92 108 125 120 117 204 220 213 203 166 203 234 246 257 258 261 267 269 260 240 231 249 262 266 267 275 274 277 280 254 233
296 212 269 260 261 215 183 183 174 159 140 109 83 116 152 177 186 190 122 97 211 205 229 238 252 262 269 276 280 286 307 7 277 266 277 293 296 292 280 245 231 254 262
314 306 294 287 278 252 233 226 214 184 174 159 139 129 160 193 215 43 122 231 234 230 245 255 260 266 274 291 310 355 359 359 354 309 282 273 279 284 289 295 285 282 261
271 261 266 270 253 247 251 246 244 206 166 163 156 140 144 172 187 178 205 250 260 263 285 287 298 326 341 352 11 14 355 350 355 338 332 305 300 303 289 288 300 294 284
290 264 253 252 239 224 245 244 236 222 199 187 154 147 162 198 191 184 195 222 262 294 310 322 327 349 9 3 9 359 339 338 344 336 329 317 311 302 288 280 289 293 295
279 271 273 274 259 240 256 244 235 224 190 203 134 131 189 209 171 143 130 296 350 13 8 11 21 29 24 12 4 349 346 355 354 349 342 328 313 306 296 278 286 288 280
254 252 267 273 245 229 249 252 246 220 189 180 140 125 162 239 79 98 96 56 29 26 18 27 31 26 26 21 15 16 8 356 343 344 341 329 316 311 321 324 310 306 300
272 244 247 268 275 258 255 269 263 211 110 75 77 86 119 106 52 61 59 52 46 37 30 30 27 25 32 28 25 28 23 5 344 342 343 329 318 317 317 309 301 295 288
286 291 270 292 301 295 294 287 326 66 87 64 82 118 187 146 128 113 102 86 50 39 31 18 20 35 37 21 20 27 31 20 1 337 324 310 298 296 292 296 307 302 294
298 291 308 322 307 298 298 303 34 68 107 105 66 67 59 81 98 101 102 84 54 52 36 9 46 60 36 20 35 46 43 20 356 334 311 301 304 307 307 301 294 295 297